Regional Weather Roundup
Issued by NWS Upton, NY

Current Version | Previous Version | Text Only | Print | Product List | Glossary Off
Versions: 1 2 3 4 5 6 7 8 9 10 11 12 13 14 15 16 17 18 19 20 21 22 23 24 25 26 27 28 29 30 31 32 33 34 35 36 37 38 39 40 41 42 43 44 45 46 47 48 49 50
000 ASUS41 KOKX 210409 RWROKX REGIONAL WEATHER ROUNDUP NATIONAL WEATHER SERVICE NEW YORK NY 1200 AM EDT SAT OCT 21 2017 NOTE: "FAIR" INDICATES FEW OR NO CLOUDS BELOW 12,000 FEET WITH NO SIGNIFICANT WEATHER AND/OR OBSTRUCTIONS TO VISIBILITY. NYZ071-072-176-178-NJZ106-104-210500- NEW YORK CITY METRO AREA CITY SKY/WX TMP DP RH WIND PRES REMARKS Central Park CLEAR 64 35 34 NW5 30.24S Bronx Bot Gard N/A 61 36 39 W3 30.22R LaGuardia APRT PTCLDY 66 42 41 NW10 30.20S Kennedy INTL CLEAR 63 36 36 NW5 30.22R Breezy Point N/A 63 N/A N/A NW5 N/A Newark/Liberty CLEAR 62 35 36 CALM 30.22R Teterboro CLEAR 55 40 56 CALM 30.21R $$ NYZ177-179-078>081-210500- LONG ISLAND NEW YORK CITY SKY/WX TMP DP RH WIND PRES REMARKS Jones Beach N/A 61 N/A N/A NW6 N/A Matinecock PT N/A 63 N/A N/A SW2 N/A Farmingdale CLEAR 55 44 66 CALM 30.21R MacArthur/ISP CLEAR 54 45 71 SW3 30.21R Shirley CLEAR 51 45 79 CALM 30.21R Mt Sinai Harb N/A N/A N/A N/A W3 N/A Westhampton CLEAR 45 39 79 CALM 30.22R East Hampton FAIR 46 44 90 CALM 30.19R Montauk N/A 63 50 62 NW6 30.19R $$ NYZ052-065-067-210500- HUDSON VALLEY CITY SKY/WX TMP DP RH WIND PRES REMARKS White Plains CLEAR 54 46 74 NW8 30.21R Larchmont Harb N/A 61 N/A N/A CALM N/A Croton On Huds N/A 54 N/A N/A E3 N/A Newburgh CLEAR 55 39 54 NW12 30.23R Montgomery CLEAR 52 37 56 CALM 30.22R Poughkeepsie CLEAR 45 40 82 CALM 30.21R Albany CLEAR 49 35 58 W5 30.22R $$ NJZ001-105-106-008-010-013-015-019>022-104-210500- NEW JERSEY CITY SKY/WX TMP DP RH WIND PRES REMARKS Newark/Liberty CLEAR 62 35 36 CALM 30.22R Teterboro CLEAR 55 40 56 CALM 30.21R Caldwell CLEAR 51 43 74 CALM 30.23R Somerville CLEAR 43 41 93 CALM 30.21S Linden FAIR 59 37 42 CALM 30.22S Perth Amboy N/A 59 N/A N/A N2 N/A Sussex CLEAR 43 41 93 CALM 30.24S Andover N/A 45 43 93 CALM 30.24S Trenton CLEAR 55 39 54 NW3 30.23R Millville CLEAR 49 45 86 W5 30.24R Atlantic City CLEAR 53 43 68 NW3 30.23R Wrightstown CLEAR 51 42 71 CALM 30.21R Toms River N/A 45 40 82 CALM 30.24R Belmar CLEAR 54 41 61 NW3 30.23S $$ PAZ047>061-062-071-210500- EASTERN PENNSYLVANIA CITY SKY/WX TMP DP RH WIND PRES REMARKS Philadelphia CLEAR 58 40 51 CALM 30.24R Allentown CLEAR 50 40 68 W5 30.25R Scranton CLEAR 50 36 58 E8 30.25S $$ CTZ002-004>006-009-010-012-RIZ004-006-007-MAZ004-011-015-210500- SOUTHERN NEW ENGLAND IN CT CITY SKY/WX TMP DP RH WIND PRES REMARKS Bradley INTL PTCLDY 53 39 59 W3 30.20R Hartford CLEAR 51 47 86 CALM 30.20R Danbury CLEAR 46 40 79 SW5 30.23R Wtrbury/Oxford CLEAR 50 36 58 N5 30.22R Norwalk Harbor N/A 55 N/A N/A NW5 N/A Bridgeport CLEAR 53 41 63 N3 30.21R Meriden CLEAR 45 41 86 CALM 30.21R New Haven CLEAR 49 42 77 CALM 30.21R Chester FAIR 55 39 54 NW6 30.20S Groton CLEAR 48 45 89 CALM 30.18S Wilimantic CLEAR 44 41 89 E3 30.20R IN RI CITY SKY/WX TMP DP RH WIND PRES REMARKS Providence PTCLDY 57 40 52 W7 30.16S Block Island CLEAR 61 48 62 NW10 30.17S Westerly CLEAR 52 43 71 CALM 30.18R IN MA CITY SKY/WX TMP DP RH WIND PRES REMARKS Boston CLEAR 62 34 35 NW10 30.14R Worcester CLOUDY 55 31 39 NW10 30.18R Westfield CLEAR 44 41 89 CALM 30.20R Provincetown CLEAR 60 48 64 N9 30.14R Nantucket CLEAR 61 47 59 NW10 30.13R $$ ANZ330-335-338-340-345-350-353-355-210500- COASTAL MARINE OBSERVATIONS STATION/POSITION TIME SKY/WX TEMP WIND PRES VSBY WAVE AIR SEA DIR/SP/G HT/PER (UTC) (F) (DEG/KT/KT) (MB) (MI) (FT/S) NY HARB ENTRANCE 0350 65 64 300/ 10/ 12 1022.4 2/ 8 20 S FIRE ISLAND 0250 65 64 310/ 4/ 6 1022.4 2/ 9 GREAT SOUTH BAY 0315 59 62 310/ 4/ 4 N/A 15 E BARNEGAT LI NOT AVBL HUDSON CANYON 0250 66 65 290/ 8/ 10 1021.6 3/ 8 KINGS POINT 0336 64 65 CALM / 2 1023.7 EXECUTION ROCKS 0330 65 290/ 10/ 12 N/A WESTERN LI SOUND 0249 63 300/ 4/ 4 N/A 0 CENTRAL LI SOUND 0300 66 320/ 10/ 12 N/A 1 EASTERN LI SOUND NOT AVBL ROBBINS REEF 0336 64 300/ 4/ 5 1023.7 $$ >>>>>>>>>>>>>>>>>>>>>>>>>>>> KEY <<<<<<<<<<<<<<<<<<<<<<<<<<< > < > SKY/WX - Sky Condition/Present Weather < > TMP - Temperature in Fahrenheit < > DP - Dew Point in Fahrenheit < > RH - Relative Humidity in Percent < > WIND - Direction (from) and Speed in MPH < > PRES - Mean Sea Level Pressure (inches of Hg) < > WCI - Wind Chill Index < > VSB - VISIBILITY IN MILES < > HX - HEAT INDEX < > TC - TEMPERATURE IN CELSIUS < > VRB - VARIABLE WIND DIRECTION < > < >>>>>>>>>>>>>>>>>>>>>>>>>>>> KEY <<<<<<<<<<<<<<<<<<<<<<<<<<<

USA.gov is the U.S. government's official web portal to all federal, state and local government web resources and services.